Location: Hilton Head Island
(32.2163°N, 80.7526°W)
Time: 07:33:19
(UTC-04:00)

Vanguard 2 Rocket - Pass Details

Date: 17 February 2026
Orbit: 553 x 3286 km, 32.9° (Epoch: 16 March)

Event Time Altitude Azimuth Distance (km) Brightness Sun altitude
Rises 13:40:05 0° 253° (WSW) 7,250 11.9 43.5°
Reaches altitude 10° 13:45:08 10° 253° (WSW) 6,145 11.7 43.1°
Maximum altitude 14:04:05 85° 167° (SSE) 2,475 9.9 41.3°
Drops below altitude 10° 14:15:38 10° 81° (E) 3,986 10.0 40.1°
Sets 14:18:11 0° 80° (E) 4,683 10.2 39.8°
